Regional Weather Roundup
Issued by NWS

Home | Current Version | Previous Version | Text Only | Print | Product List | Glossary Off
Versions: 1 2 3 4 5 6 7 8 9 10 11 12 13 14 15 16 17 18 19 20 21 22 23 24 25 26 27 28 29 30 31 32 33 34 35 36 37 38 39 40 41 42 43 44 45 46 47 48 49 50

322
ASUS43 KFSD 210202
RWRSD

WEATHER ROUNDUP FOR SOUTH DAKOTA
NATIONAL WEATHER SERVICE SIOUX FALLS SD
900 PM CDT SUN AUG 20 2017

NOTE: "FAIR" INDICATES FEW OR NO CLOUDS BELOW 12,000 FEET WITH NO
SIGNIFICANT WEATHER AND/OR OBSTRUCTIONS TO VISIBILITY.


SDZ001>005-009-010-012>017-210300-
NORTHWEST AND NORTH CENTRAL SOUTH DAKOTA

CITY           SKY/WX    TMP DP  RH WIND       PRES   REMARKS
BUFFALO          N/A     72  44  36 E22       29.92R
FAITH            N/A     67  48  50 E14       30.01S
MOBRIDGE       CLOUDY    65  53  65 E9        30.01S
$$

SDZ012>016-024>037-041>051-057-063-072>074-210300-
SOUTHWEST AND SOUTH CENTRAL SOUTH DAKOTA

CITY           SKY/WX    TMP DP  RH WIND       PRES   REMARKS
RAPID CTY ARPT CLEAR     74  52  46 SE15      29.98S
PIERRE         CLEAR     66  48  52 NE8       29.99R
CUSTER         CLEAR     67  50  54 E9G20     30.12R
ELLSWORTH AFB  CLEAR     76  53  44 SE15      29.98R
PHILIP         CLEAR     72  52  49 E14       29.98R
PINE RIDGE     CLEAR     73  55  53 E7        29.99R
SPEARFISH      FAIR      73  52  46 SE17      29.99R
WINNER         FAIR      72  60  66 E10       29.99R
$$

SDZ004>011-016>023-039-040-210300-
NORTHEAST SOUTH DAKOTA

CITY           SKY/WX    TMP DP  RH WIND       PRES   REMARKS
ABERDEEN       MOCLDY    61  57  87 NE3       30.04R
WATERTOWN      CLEAR     60  54  80 N6        30.03R
BROOKINGS      CLOUDY    68  58  70 NE8       30.02S
SISSETON         N/A     63  61  93 NW7       30.02R
$$

SDZ017-020-022-023-036>040-048>070-210300-
SOUTHEAST SOUTH DAKOTA

CITY           SKY/WX    TMP DP  RH WIND       PRES   REMARKS
SIOUX FALLS    MOCLDY    72  63  73 NE8       30.00R
HURON          LGT RAIN  65  58  78 NE5       30.00R
CHAMBERLAIN    CLEAR     71  60  68 NE7       29.99R
MITCHELL       CLEAR     70  61  73 NE8       29.99R
$$

ABBREVIATIONS USED IN REMARKS
   TC - TEMPERATURE IN CELSIUS
  WCI - WIND CHILL INDEX
   HX - HEAT INDEX
  VSB - VISIBILITY





USA.gov is the U.S. government's official web portal to all federal, state and local government web resources and services.